When you browse on this site, cookies collect data to enhance your experience and personalize the content and advertising you see.
Visit our Privacy Policy to learn more. By continuing to use the site, you agree to this use of cookies and data.
  • In Österreich
  • Länderverzeichnis
  • Für 7 Tage
  • Wassertemperatur
  • Wetterkarte
  • News
  • Widgets
  • user-avatar
    Anmelden

    Stündliche Wetter Ozernica

    Heute, 6 Juni, Samstag

    Zeit Temperatur Niederschläge Wind Luftdruck Luftfeuchtigkeit
    00:00 +15°C° 0 mm 4 m/S 741 mmHg 94%
    01:00 +16°C° 0 mm 3 m/S 741 mmHg 95%
    02:00 +16°C° 0 mm 3 m/S 741 mmHg 95%
    03:00 +16°C° 0.5 mm 3 m/S 741 mmHg 95%
    04:00 +16°C° 0.5 mm 3 m/S 741 mmHg 96%
    05:00 +16°C° 0.5 mm 3 m/S 742 mmHg 97%
    06:00 +16°C° 0.3 mm 3 m/S 742 mmHg 97%
    07:00 +16°C° 0.3 mm 3 m/S 742 mmHg 96%
    08:00 +17°C° 0.3 mm 3 m/S 743 mmHg 96%
    09:00 +18°C° 0.1 mm 4 m/S 743 mmHg 91%
    10:00 +19°C° 0.1 mm 4 m/S 744 mmHg 86%
    11:00 +20°C° 0.1 mm 4 m/S 744 mmHg 80%
    12:00 +21°C° 0 mm 4 m/S 745 mmHg 75%
    13:00 +22°C° 0 mm 4 m/S 745 mmHg 70%
    14:00 +23°C° 0 mm 5 m/S 745 mmHg 64%
    15:00 +23°C° 0 mm 4 m/S 745 mmHg 66%
    16:00 +23°C° 0 mm 4 m/S 746 mmHg 67%
    17:00 +23°C° 0 mm 4 m/S 746 mmHg 68%
    18:00 +21°C° 0 mm 3 m/S 746 mmHg 73%
    19:00 +19°C° 0 mm 2 m/S 746 mmHg 78%
    20:00 +19°C° 0 mm 1 m/S 746 mmHg 84%
    21:00 +18°C° 0 mm 1 m/S 747 mmHg 85%
    22:00 +16°C° 0 mm 1 m/S 747 mmHg 86%
    23:00 +15°C° 0 mm 1 m/S 748 mmHg 87%

    Morgen, 7 Juni, Sonntag

    Zeit Temperatur Niederschläge Wind Luftdruck Luftfeuchtigkeit
    00:00 +15°C° 0 mm 1 m/S 748 mmHg 88%
    01:00 +15°C° 0 mm 1 m/S 748 mmHg 88%
    02:00 +15°C° 0 mm 2 m/S 748 mmHg 89%
    03:00 +15°C° 0 mm 2 m/S 748 mmHg 90%
    04:00 +15°C° 0 mm 2 m/S 748 mmHg 90%
    05:00 +14°C° 0 mm 3 m/S 748 mmHg 91%
    06:00 +16°C° 0.1 mm 3 m/S 748 mmHg 90%
    07:00 +17°C° 0.1 mm 3 m/S 748 mmHg 88%
    08:00 +18°C° 0.1 mm 3 m/S 748 mmHg 87%
    09:00 +20°C° 0 mm 4 m/S 748 mmHg 83%
    10:00 +22°C° 0 mm 4 m/S 748 mmHg 79%
    11:00 +23°C° 0 mm 5 m/S 748 mmHg 75%
    12:00 +25°C° 0 mm 5 m/S 748 mmHg 72%
    13:00 +26°C° 0 mm 5 m/S 748 mmHg 69%
    14:00 +27°C° 0 mm 5 m/S 748 mmHg 67%
    15:00 +27°C° 0.8 mm 4 m/S 748 mmHg 71%
    16:00 +27°C° 0.8 mm 4 m/S 747 mmHg 75%
    17:00 +26°C° 0.8 mm 4 m/S 747 mmHg 79%
    18:00 +25°C° 0 mm 4 m/S 747 mmHg 81%
    19:00 +23°C° 0 mm 4 m/S 747 mmHg 84%
    20:00 +21°C° 0 mm 4 m/S 747 mmHg 86%
    21:00 +20°C° 0 mm 3 m/S 747 mmHg 89%
    22:00 +19°C° 0 mm 3 m/S 747 mmHg 91%
    23:00 +18°C° 0 mm 3 m/S 747 mmHg 93%

    übermorgen, 8 Juni, Montag

    Zeit Temperatur Niederschläge Wind Luftdruck Luftfeuchtigkeit
    00:00 +18°C° 0 mm 3 m/S 748 mmHg 94%
    01:00 +18°C° 0 mm 3 m/S 748 mmHg 94%
    02:00 +17°C° 0 mm 3 m/S 748 mmHg 95%
    03:00 +17°C° 0 mm 3 m/S 748 mmHg 95%
    04:00 +17°C° 0 mm 3 m/S 747 mmHg 94%
    05:00 +17°C° 0 mm 3 m/S 747 mmHg 94%
    06:00 +19°C° 0 mm 3 m/S 748 mmHg 89%
    07:00 +20°C° 0 mm 3 m/S 748 mmHg 84%
    08:00 +22°C° 0 mm 4 m/S 748 mmHg 79%
    09:00 +25°C° 0 mm 4 m/S 748 mmHg 73%
    10:00 +26°C° 0 mm 4 m/S 748 mmHg 67%
    11:00 +28°C° 0 mm 4 m/S 749 mmHg 61%
    12:00 +28°C° 0 mm 4 m/S 748 mmHg 59%
    13:00 +29°C° 0 mm 4 m/S 748 mmHg 56%
    14:00 +29°C° 0 mm 4 m/S 748 mmHg 54%
    15:00 +29°C° 0 mm 4 m/S 748 mmHg 58%
    16:00 +29°C° 0 mm 3 m/S 747 mmHg 62%
    17:00 +29°C° 0 mm 3 m/S 747 mmHg 66%
    18:00 +27°C° 0 mm 3 m/S 747 mmHg 70%
    19:00 +25°C° 0 mm 3 m/S 747 mmHg 75%
    20:00 +22°C° 0 mm 3 m/S 747 mmHg 79%
    21:00 +21°C° 0 mm 3 m/S 747 mmHg 82%
    22:00 +20°C° 0 mm 3 m/S 748 mmHg 85%
    23:00 +19°C° 0 mm 3 m/S 748 mmHg 88%

    9 Juni, Dienstag

    Zeit Temperatur Niederschläge Wind Luftdruck Luftfeuchtigkeit
    00:00 +18°C° 0 mm 3 m/S 748 mmHg 89%
    01:00 +18°C° 0 mm 3 m/S 748 mmHg 90%
    02:00 +17°C° 0 mm 3 m/S 748 mmHg 92%
    03:00 +18°C° 0 mm 3 m/S 748 mmHg 93%
    04:00 +18°C° 0 mm 3 m/S 748 mmHg 93%
    05:00 +18°C° 0 mm 3 m/S 748 mmHg 94%
    06:00 +19°C° 0 mm 3 m/S 748 mmHg 89%
    07:00 +21°C° 0 mm 4 m/S 748 mmHg 85%
    08:00 +23°C° 0 mm 4 m/S 748 mmHg 80%
    09:00 +25°C° 0 mm 4 m/S 748 mmHg 74%
    10:00 +27°C° 0 mm 5 m/S 748 mmHg 68%
    11:00 +28°C° 0 mm 5 m/S 748 mmHg 62%
    12:00 +29°C° 0 mm 5 m/S 748 mmHg 60%
    13:00 +29°C° 0 mm 5 m/S 748 mmHg 58%
    14:00 +30°C° 0 mm 4 m/S 748 mmHg 55%
    15:00 +30°C° 0 mm 4 m/S 748 mmHg 58%
    16:00 +30°C° 0 mm 3 m/S 748 mmHg 62%
    17:00 +29°C° 0 mm 3 m/S 747 mmHg 65%
    18:00 +28°C° 0.2 mm 3 m/S 748 mmHg 70%
    19:00 +26°C° 0.2 mm 2 m/S 748 mmHg 75%
    20:00 +24°C° 0.2 mm 2 m/S 748 mmHg 80%
    21:00 +23°C° 0 mm 2 m/S 748 mmHg 83%
    22:00 +21°C° 0 mm 2 m/S 748 mmHg 86%
    23:00 +20°C° 0 mm 2 m/S 748 mmHg 88%

    10 Juni, Mittwoch

    Zeit Temperatur Niederschläge Wind Luftdruck Luftfeuchtigkeit
    00:00 +20°C° 0 mm 2 m/S 748 mmHg 90%
    01:00 +19°C° 0 mm 2 m/S 748 mmHg 92%
    02:00 +19°C° 0 mm 2 m/S 748 mmHg 93%
    03:00 +19°C° 0 mm 3 m/S 748 mmHg 93%
    04:00 +19°C° 0 mm 3 m/S 748 mmHg 94%
    05:00 +19°C° 0 mm 3 m/S 748 mmHg 94%
    06:00 +20°C° 0 mm 3 m/S 748 mmHg 89%
    07:00 +22°C° 0 mm 3 m/S 748 mmHg 85%
    08:00 +25°C° 0 mm 4 m/S 748 mmHg 80%
    09:00 +26°C° 0.9 mm 4 m/S 748 mmHg 76%
    10:00 +27°C° 0.9 mm 4 m/S 748 mmHg 72%
    11:00 +28°C° 0.9 mm 5 m/S 747 mmHg 67%
    12:00 +28°C° 1.3 mm 4 m/S 747 mmHg 68%
    13:00 +29°C° 1.3 mm 3 m/S 747 mmHg 68%
    14:00 +29°C° 1.3 mm 3 m/S 747 mmHg 68%
    15:00 +29°C° 0.8 mm 3 m/S 746 mmHg 70%
    16:00 +28°C° 0.8 mm 3 m/S 746 mmHg 73%
    17:00 +28°C° 0.8 mm 3 m/S 746 mmHg 75%
    18:00 +27°C° 0.6 mm 3 m/S 746 mmHg 78%
    19:00 +25°C° 0.6 mm 3 m/S 746 mmHg 81%
    20:00 +24°C° 0.6 mm 3 m/S 746 mmHg 84%
    21:00 +23°C° 0.5 mm 2 m/S 746 mmHg 85%
    22:00 +21°C° 0.5 mm 2 m/S 746 mmHg 87%
    23:00 +20°C° 0.5 mm 2 m/S 746 mmHg 89%

    11 Juni, Donnerstag

    Zeit Temperatur Niederschläge Wind Luftdruck Luftfeuchtigkeit
    00:00 +20°C° 0 mm 2 m/S 745 mmHg 91%
    01:00 +19°C° 0 mm 2 m/S 745 mmHg 92%
    02:00 +19°C° 0 mm 2 m/S 745 mmHg 93%
    03:00 +19°C° 0 mm 2 m/S 745 mmHg 94%
    04:00 +19°C° 0 mm 2 m/S 745 mmHg 95%
    05:00 +19°C° 0 mm 2 m/S 745 mmHg 95%
    06:00 +20°C° 0.2 mm 2 m/S 745 mmHg 93%
    07:00 +21°C° 0.2 mm 2 m/S 745 mmHg 90%
    08:00 +24°C° 0.2 mm 2 m/S 745 mmHg 88%
    09:00 +25°C° 0.8 mm 2 m/S 744 mmHg 81%
    10:00 +27°C° 0.8 mm 2 m/S 744 mmHg 75%
    11:00 +28°C° 0.8 mm 2 m/S 744 mmHg 69%
    12:00 +29°C° 0.6 mm 2 m/S 744 mmHg 66%
    13:00 +29°C° 0.6 mm 2 m/S 743 mmHg 63%
    14:00 +30°C° 0.6 mm 2 m/S 743 mmHg 60%
    15:00 +30°C° 0.7 mm 2 m/S 743 mmHg 63%
    16:00 +29°C° 0.7 mm 1 m/S 743 mmHg 65%
    17:00 +29°C° 0.7 mm 1 m/S 742 mmHg 67%
    18:00 +28°C° 0.3 mm 1 m/S 743 mmHg 72%
    19:00 +26°C° 0.3 mm 1 m/S 743 mmHg 76%
    20:00 +24°C° 0.3 mm 2 m/S 743 mmHg 81%
    21:00 +23°C° 0.2 mm 1 m/S 743 mmHg 83%
    22:00 +22°C° 0.2 mm 1 m/S 743 mmHg 85%
    23:00 +21°C° 0.2 mm 1 m/S 743 mmHg 88%
    Mehr zeigen